Hilo, HI (96720)

4:08 PM HST on February 09, 2016 (GMT -1000)
Sunrise Estates | | Change Station
CLOSE
Current Station
Personal Weather Station
Location: Hilo, HI
Elevation: 413 ft
Nearby Weather Stations
Active Advisory: High Surf Advisory Active Notice: Record Report

Elev 413 ft 19.70 °N, 155.10 °W | Updated 8 seconds ago

Partly Cloudy
Partly Cloudy
74.5 °F
Feels Like 77 °F
N
0.0
Wind Variable Wind from East
Gusts 0.0 mph

Today
High -- | Low -- °F
--% Chance of Precip.
Yesterday
High -- | Low -- °F
Precip. -- in
Pressure 29.97 in
Visibility 10.0 miles
Clouds Few 4600 ft
Heat Index 77 °F
Dew Point 60 °F
Humidity 60%
Rainfall 0.00 in
Snow Depth Not available.
6:52 AM 6:16 PM
Waxing Crescent, 3% visible
METAR PHTO 100153Z 03007KT 10SM FEW046 27/16 A2998 RMK AO2 SLP149 T02670156
Pressure 29.97 in
Visibility 10.0 miles
Clouds Few 4600 ft
Heat Index 77 °F
Dew Point 60 °F
Humidity 60%
Rainfall 0.00 in
Snow Depth Not available.
6:52 AM 6:16 PM
Waxing Crescent, 3% visible
METAR PHTO 100153Z 03007KT 10SM FEW046 27/16 A2998 RMK AO2 SLP149 T02670156

10-Day Weather Forecast

Almanac

Astronomy

Feb. 09, 2016 Rise Set
Actual Time
Civil Twilight
Nautical Twilight
Astronomical Twilight
Moon
Length of Visible Light
Length of Day
Tomorrow will be .
, % of the Moon is Illuminated

Today's Extremes

State Highs State Lows

Community

WunderPhotos

Upload Photos

1,891,760 photos uploaded!

WunderBlog® & News

Nearby

Air Quality

  Air Quality AQ Index Pollutant
Not available.

Snow Depth

Station Depth Elevation

Earthquake Activity

City Distance Mag. Time & Date
Minimum magnitude displayed is 2.5.

Coastal Water Temperatures

Place Temperature

Stations

Nearby Weather Stations

Station Location Temp. Windchill Dew Point Humidity Wind Precip. Elev Updated Type
                   

Watches & Warnings

High Surf Advisory
Issued: 3:37 PM HST Feb. 9, 2016 – National Weather Service

... High surf advisory in effect from noon Wednesday to 6 PM HST
Thursday...

The National Weather Service in Honolulu has issued a high surf
advisory... which is in effect from noon Wednesday to 6 PM HST
Thursday.

* Surf... along north facing shores... surf will rise to 12 to 16 ft
Wednesday.

* Timing... noon Wednesday through 6 PM Thursday.

* Impacts... moderate... expect strong breaking waves... shore
break... and strong longshore and rip currents making swimming
difficult and dangerous.

Precautionary/preparedness actions...

Beachgoers... swimmers... and surfers should heed all advice given
by ocean safety officials and exercise caution. Know your
limits... when in doubt... do not go out.